[[{"header":{"parameterUnit":"m.s-1","parameterCategory":2,"la1":30.2992,"la2":30.254,"lo1":-89.0895,"lo2":-89.0443,"dy":0.0025,"dx":0.0025,"nx":19,"ny":19,"refTime":"2026-05-08T21:00:00:Z","depth":"0","parameterNumber":2,"parameterNumberName":"U-component_of_CURRENTS"},"data":[0,0,0,-0.0875,-0.0878,-0.1098,-0.1099,-0.1376,-0.1378,0,0,0,0,0,0,0,0,0,0,0,-0.0794,-0.0795,-0.0874,-0.0879,-0.1098,-0.1099,-0.1376,-0.1378,0,0,0,0,0,0,0,0,0,0,0,-0.0794,-0.0794,-0.0795,-0.0879,-0.1098,-0.1099,-0.1375,-0.1218,0,0,0,0,0,0,0,0,0,0,-0.1009,-0.0917,-0.0794,-0.0795,-0.088,-0.1097,-0.1099,-0.1211,-0.1228,-0.1265,0,-0.1278,0,-0.1323,-0.1394,-0.1395,0,0,0,-0.0911,-0.0903,-0.0963,-0.0795,-0.0882,-0.1097,-0.1008,-0.1221,-0.124,-0.1288,-0.1282,-0.1293,-0.1327,-0.1395,-0.1396,-0.1584,-0.1584,0,0,-0.0899,-0.0843,-0.0949,-0.0974,-0.0911,-0.1001,-0.1014,-0.1233,-0.124,-0.1283,-0.13,-0.1332,-0.1397,-0.1399,-0.1584,-0.1584,0,0,0,-0.0842,-0.0834,-0.089,-0.0962,-0.0996,-0.1006,-0.1022,-0.1231,-0.1249,-0.1303,-0.1335,-0.1398,-0.1401,-0.1583,-0.1584,-0.1438,0,0,0,-0.0836,-0.0799,-0.0883,-0.0855,-0.0991,-0.1115,-0.1014,-0.1234,-0.126,-0.1334,-0.1398,-0.1403,-0.1583,-0.1584,-0.1441,-0.1302,0,0,0,-0.0789,-0.0795,-0.0811,-0.085,-0.0932,-0.1112,-0.1145,-0.1241,-0.1278,-0.1395,-0.1404,-0.1583,-0.1583,-0.1444,-0.1311,-0.1094,0,0,0,-0.0739,-0.0776,-0.081,-0.0875,-0.0929,-0.109,-0.1144,-0.1275,-0.1372,-0.1399,-0.1583,-0.1584,-0.1444,-0.1316,-0.1102,-0.0886,-0.0832,0,0,-0.0765,-0.0777,-0.0823,-0.086,-0.0987,-0.1064,-0.117,-0.1306,-0.1394,-0.1516,-0.1521,-0.144,-0.1312,-0.1096,-0.0931,-0.0874,0,0,0,-0.0821,-0.0843,-0.0895,-0.097,-0.1085,-0.112,-0.1278,-0.1304,-0.1396,-0.1449,-0.1497,-0.142,-0.1287,-0.1177,-0.1135,-0.1094,-0.1587,-0.1587,-0.1587,-0.0779,-0.0857,-0.0917,-0.1011,-0.1085,-0.1186,-0.1186,-0.1249,-0.1395,-0.1393,-0.1346,-0.1139,-0.1031,-0.0993,-0.096,-0.144,-0.1439,-0.1439,-0.1439,-0.0785,-0.0797,-0.0873,-0.0947,-0.0988,-0.1058,-0.1096,-0.1134,-0.1071,-0.1256,-0.1134,-0.1088,-0.0936,-0.0918,-0.143,-0.1432,-0.1433,-0.1434,-0.1434,-0.0714,-0.0718,-0.0767,-0.081,-0.0824,-0.091,-0.0788,-0.0849,-0.0887,-0.079,-0.064,-0.0641,-0.057,-0.074,-0.0738,-0.0737,-0.0735,-0.0734,-0.0733,-0.0583,-0.0636,-0.0603,-0.0658,-0.0639,-0.0615,-0.0587,-0.0491,-0.0368,-0.0401,-0.04,-0.0493,-0.0923,-0.0888,-0.071,-0.0714,-0.0717,-0.0719,-0.0721,-0.0472,-0.0461,-0.0419,-0.0388,-0.0337,-0.0228,-0.0235,0.0008,0.0134,0.0265,0.0129,-0.017,-0.0153,-0.0191,-0.0139,0.0223,0.0223,0.0223,0.0224,-0.0334,-0.0351,-0.0231,-0.014,-0.0034,-0.0028,0.0241,0.0363,0.0512,0.0591,0.0534,0.0367,0.0327,0.0357,0.0308,0.0361,0.0843,0.0843,0.0843,-0.0214,-0.0215,-0.0086,-0.0032,0.0099,0.0201,0.0417,0.0542,0.0762,0.086,0.056,0.0534,0.0259,0.0193,0.0195,0.0122,0.0191,0,0]},{"header":{"parameterUnit":"m.s-1","parameterCategory":2,"la1":30.2992,"la2":30.254,"lo1":-89.0895,"lo2":-89.0443,"dy":0.0025,"dx":0.0025,"nx":19,"ny":19,"refTime":"2026-05-08T21:00:00:Z","depth":"0","parameterNumber":3,"parameterNumberName":"V-component_of_CURRENTS"},"data":[0,0,0,0.0531,0.0531,0.0554,0.0555,0.0609,0.0609,0,0,0,0,0,0,0,0,0,0,0,0.0523,0.0523,0.0531,0.0531,0.0554,0.0555,0.0608,0.0609,0,0,0,0,0,0,0,0,0,0,0,0.0523,0.0523,0.0522,0.0531,0.0554,0.0555,0.0608,0.059,0,0,0,0,0,0,0,0,0,0,0.0566,0.0549,0.0523,0.0522,0.0531,0.0554,0.0555,0.0589,0.0591,0.0599,0,0.0586,0,0.059,0.0611,0.0611,0,0,0,0.0551,0.0547,0.0548,0.0522,0.0531,0.0554,0.055,0.059,0.0592,0.0601,0.0587,0.0589,0.0591,0.0611,0.0612,0.0564,0.0563,0,0,0.055,0.0538,0.0546,0.0549,0.0517,0.0549,0.055,0.0591,0.0589,0.0587,0.059,0.0592,0.0612,0.0612,0.0564,0.0563,0,0,0,0.0533,0.0537,0.0537,0.0546,0.0544,0.0549,0.055,0.0587,0.0585,0.0591,0.0593,0.0612,0.0612,0.0565,0.0564,0.0508,0,0,0,0.0533,0.0525,0.0536,0.0531,0.0542,0.0562,0.0545,0.0582,0.0587,0.0592,0.0612,0.0613,0.0566,0.0565,0.0512,0.0548,0,0,0,0.0525,0.0525,0.052,0.053,0.053,0.0562,0.0563,0.0584,0.0587,0.0611,0.0613,0.0567,0.0565,0.0515,0.0551,0.062,0,0,0,0.0525,0.0481,0.0519,0.0472,0.053,0.0494,0.0563,0.0551,0.0561,0.0612,0.0566,0.0564,0.0516,0.0552,0.062,0.0717,0.0723,0,0,0.0463,0.0473,0.0443,0.0478,0.0417,0.0493,0.0451,0.05,0.0538,0.056,0.0559,0.0511,0.0551,0.062,0.0609,0.0619,0,0,0,0.042,0.0394,0.0381,0.0361,0.0362,0.0388,0.0423,0.0446,0.0473,0.0533,0.0488,0.0516,0.0562,0.0619,0.0626,0.0639,0.0556,0.0556,0.0556,0.0336,0.0332,0.0276,0.0271,0.0266,0.0305,0.034,0.0384,0.04,0.0395,0.0451,0.0445,0.0498,0.0506,0.0515,0.0397,0.0397,0.0397,0.0397,0.0235,0.0211,0.0215,0.0162,0.0201,0.0191,0.027,0.0305,0.0389,0.0376,0.0422,0.0532,0.0512,0.0518,0.0393,0.0393,0.0394,0.0394,0.0395,0.0189,0.0179,0.0147,0.011,0.0118,0.0162,0.0269,0.0324,0.0374,0.0418,0.0546,0.0548,0.0582,0.0446,0.0447,0.0447,0.0448,0.0448,0.0448,0.0172,0.0137,0.0113,0.0077,0.0087,0.0158,0.0293,0.0395,0.0516,0.0545,0.0546,0.0578,0.0463,0.0494,0.0454,0.0453,0.0452,0.0452,0.0451,0.0139,0.0147,0.01,0.0096,0.0139,0.0257,0.0356,0.0582,0.0679,0.0752,0.0721,0.063,0.0692,0.0686,0.0723,0.0745,0.0745,0.0745,0.0746,0.0159,0.0145,0.0137,0.0153,0.0219,0.0321,0.0575,0.0754,0.0858,0.089,0.0845,0.0807,0.0795,0.0859,0.085,0.0889,0.0952,0.0952,0.0953,0.0175,0.0156,0.0184,0.0188,0.0261,0.0427,0.0684,0.0879,0.097,0.0957,0.0841,0.0832,0.0766,0.0746,0.0836,0.0822,0.0882,0,0]}],[{"header":{"parameterUnit":"m.s-1","parameterCategory":2,"la1":30.2992,"la2":30.254,"lo1":-89.0895,"lo2":-89.0443,"dy":0.0025,"dx":0.0025,"nx":19,"ny":19,"refTime":"2026-05-08T21:00:00:Z","depth":"2","parameterNumber":2,"parameterNumberName":"U-component_of_CURRENTS"},"data":[0,0,0,-0.0722,-0.0722,-0.0732,-0.0732,-0.074,-0.0741,0,0,0,0,0,0,0,0,0,0,0,-0.0718,-0.0718,-0.0722,-0.0722,-0.0732,-0.0732,-0.074,-0.0741,0,0,0,0,0,0,0,0,0,0,0,-0.0718,-0.0718,-0.0719,-0.0722,-0.0732,-0.0732,-0.074,-0.0732,0,0,0,0,0,0,0,0,0,0,-0.0722,-0.0725,-0.0718,-0.0719,-0.0723,-0.0732,-0.0732,-0.0732,-0.0733,-0.0738,0,-0.0746,0,-0.0748,-0.0742,-0.0742,0,0,0,-0.0714,-0.0725,-0.0726,-0.0719,-0.0723,-0.0732,-0.0725,-0.0732,-0.0733,-0.0739,-0.0746,-0.0746,-0.0748,-0.0742,-0.0742,-0.0832,-0.0832,0,0,-0.0713,-0.0719,-0.0726,-0.0727,-0.0734,-0.0725,-0.0726,-0.0733,-0.0738,-0.0746,-0.0747,-0.0748,-0.0742,-0.0742,-0.0831,-0.0832,0,0,0,-0.0718,-0.0719,-0.072,-0.0727,-0.0732,-0.0726,-0.0726,-0.0738,-0.0738,-0.0747,-0.0748,-0.0742,-0.0742,-0.083,-0.0831,-0.0891,0,0,0,-0.0717,-0.0722,-0.072,-0.0723,-0.0732,-0.0736,-0.0731,-0.0738,-0.0739,-0.0748,-0.0742,-0.0743,-0.0829,-0.0831,-0.0888,-0.0869,0,0,0,-0.0716,-0.0722,-0.0725,-0.0724,-0.0731,-0.0736,-0.0737,-0.0738,-0.074,-0.0742,-0.0743,-0.0828,-0.083,-0.0884,-0.0865,-0.0788,0,0,0,-0.0717,-0.0742,-0.0725,-0.0754,-0.0732,-0.0764,-0.0737,-0.0763,-0.0771,-0.0742,-0.0829,-0.0831,-0.0883,-0.0863,-0.0788,-0.0638,-0.0628,0,0,-0.0751,-0.0747,-0.0764,-0.0749,-0.0791,-0.0762,-0.0816,-0.0814,-0.0803,-0.0822,-0.0825,-0.0889,-0.0865,-0.0788,-0.0754,-0.074,0,0,0,-0.0776,-0.0792,-0.0801,-0.082,-0.0829,-0.0852,-0.085,-0.086,-0.0893,-0.0818,-0.0913,-0.0895,-0.0844,-0.0754,-0.0745,-0.0841,-0.084,-0.084,-0.084,-0.0821,-0.0828,-0.0868,-0.0884,-0.0905,-0.0924,-0.0937,-0.0952,-0.0946,-0.0984,-0.0965,-0.0971,-0.0884,-0.0873,-0.1011,-0.1011,-0.1011,-0.1011,-0.1012,-0.088,-0.0904,-0.092,-0.0961,-0.0979,-0.102,-0.1038,-0.1038,-0.1022,-0.1046,-0.0994,-0.0849,-0.0865,-0.1017,-0.1016,-0.1015,-0.1014,-0.1014,-0.1014,-0.0911,-0.0926,-0.095,-0.0996,-0.1036,-0.1058,-0.1027,-0.1044,-0.1048,-0.1025,-0.0845,-0.0842,-0.093,-0.0982,-0.0982,-0.0981,-0.0981,-0.0981,-0.0981,-0.0928,-0.0956,-0.097,-0.1018,-0.1016,-0.1014,-0.0995,-0.0942,-0.0868,-0.0858,-0.0856,-0.0958,-0.0959,-0.0926,-0.0975,-0.0976,-0.0977,-0.0977,-0.0978,-0.0954,-0.0954,-0.096,-0.0955,-0.0934,-0.0875,-0.0864,-0.0721,-0.0658,-0.059,-0.0735,-0.0743,-0.0675,-0.0682,-0.0642,-0.0613,-0.0613,-0.0613,-0.0613,-0.0946,-0.0959,-0.0914,-0.0868,-0.0819,-0.0793,-0.0645,-0.0552,-0.0504,-0.0489,-0.0495,-0.0518,-0.0533,-0.046,-0.0472,-0.0428,-0.0344,-0.0344,-0.0344,-0.0935,-0.092,-0.0861,-0.0824,-0.0755,-0.0692,-0.0571,-0.039,-0.0251,-0.0342,-0.0539,-0.0577,-0.0628,-0.0646,-0.0547,-0.0561,-0.0496,0,0]},{"header":{"parameterUnit":"m.s-1","parameterCategory":2,"la1":30.2992,"la2":30.254,"lo1":-89.0895,"lo2":-89.0443,"dy":0.0025,"dx":0.0025,"nx":19,"ny":19,"refTime":"2026-05-08T21:00:00:Z","depth":"2","parameterNumber":3,"parameterNumberName":"V-component_of_CURRENTS"},"data":[0,0,0,-0.0563,-0.0563,-0.0514,-0.0513,-0.0322,-0.032,0,0,0,0,0,0,0,0,0,0,0,-0.0579,-0.0579,-0.0563,-0.0563,-0.0514,-0.0513,-0.0322,-0.032,0,0,0,0,0,0,0,0,0,0,0,-0.0579,-0.0579,-0.058,-0.0563,-0.0514,-0.0513,-0.0323,-0.0386,0,0,0,0,0,0,0,0,0,0,-0.0448,-0.0498,-0.0579,-0.058,-0.0563,-0.0514,-0.0513,-0.0391,-0.0382,-0.0313,0,-0.0323,0,-0.0323,-0.0306,-0.0305,0,0,0,-0.0542,-0.0505,-0.0487,-0.058,-0.0562,-0.0514,-0.053,-0.0387,-0.0377,-0.0302,-0.0321,-0.0314,-0.032,-0.0305,-0.0304,-0.0134,-0.0134,0,0,-0.0545,-0.0566,-0.0494,-0.0482,-0.0568,-0.0532,-0.0529,-0.0382,-0.038,-0.032,-0.031,-0.0316,-0.0303,-0.0302,-0.0135,-0.0134,0,0,0,-0.0566,-0.0568,-0.0555,-0.0489,-0.0493,-0.0531,-0.0527,-0.0387,-0.0382,-0.0309,-0.0314,-0.0302,-0.03,-0.0135,-0.0135,-0.0209,0,0,0,-0.0567,-0.0582,-0.0557,-0.0568,-0.0498,-0.046,-0.0535,-0.0392,-0.0376,-0.0315,-0.0302,-0.0298,-0.0135,-0.0135,-0.0207,-0.0232,0,0,0,-0.0578,-0.0583,-0.0583,-0.057,-0.0558,-0.0463,-0.045,-0.0389,-0.0379,-0.0305,-0.0297,-0.0136,-0.0135,-0.0206,-0.023,-0.0245,0,0,0,-0.0592,-0.0599,-0.0584,-0.0583,-0.0559,-0.0501,-0.0451,-0.0403,-0.0347,-0.0301,-0.0135,-0.0135,-0.0206,-0.0229,-0.0244,-0.0256,-0.0263,0,0,-0.0606,-0.0602,-0.0597,-0.0582,-0.0548,-0.0505,-0.0452,-0.037,-0.0306,-0.0171,-0.0168,-0.0208,-0.023,-0.0245,-0.0214,-0.0223,0,0,0,-0.0602,-0.0605,-0.0588,-0.057,-0.052,-0.0477,-0.0401,-0.0361,-0.0273,-0.0274,-0.0172,-0.0182,-0.0191,-0.0193,-0.02,-0.0131,-0.0131,-0.0131,-0.0131,-0.0648,-0.0616,-0.0601,-0.0557,-0.0519,-0.0446,-0.0406,-0.0328,-0.0266,-0.0246,-0.0218,-0.0242,-0.0245,-0.025,-0.019,-0.019,-0.0191,-0.0191,-0.0191,-0.0667,-0.0659,-0.0614,-0.0594,-0.0536,-0.0487,-0.0386,-0.0358,-0.0285,-0.0241,-0.0246,-0.0239,-0.0262,-0.0196,-0.0195,-0.0194,-0.0194,-0.0194,-0.0193,-0.0702,-0.0693,-0.0682,-0.0646,-0.06,-0.0521,-0.0467,-0.04,-0.0343,-0.0343,-0.0319,-0.0318,-0.0301,-0.0343,-0.0343,-0.0343,-0.0343,-0.0343,-0.0344,-0.0748,-0.0729,-0.0734,-0.0694,-0.0672,-0.062,-0.0513,-0.0476,-0.0424,-0.0383,-0.0383,-0.0292,-0.0288,-0.0307,-0.0346,-0.0346,-0.0346,-0.0345,-0.0345,-0.0785,-0.0791,-0.079,-0.0783,-0.0729,-0.0693,-0.0607,-0.0536,-0.0492,-0.0484,-0.0399,-0.0397,-0.037,-0.0363,-0.0382,-0.0439,-0.0439,-0.0439,-0.0439,-0.0821,-0.0821,-0.0824,-0.0813,-0.0784,-0.072,-0.0667,-0.0563,-0.0485,-0.043,-0.043,-0.0403,-0.04,-0.0372,-0.0365,-0.0383,-0.0439,-0.0439,-0.0439,-0.0841,-0.084,-0.0846,-0.0835,-0.0802,-0.0756,-0.0691,-0.051,-0.0371,-0.0437,-0.0406,-0.0444,-0.0404,-0.0399,-0.0352,-0.0342,-0.0369,0,0]}],[{"header":{"parameterUnit":"m.s-1","parameterCategory":2,"la1":30.2992,"la2":30.254,"lo1":-89.0895,"lo2":-89.0443,"dy":0.0025,"dx":0.0025,"nx":19,"ny":19,"refTime":"2026-05-08T21:00:00:Z","depth":"4","parameterNumber":2,"parameterNumberName":"U-component_of_CURRENTS"},"data":[0,0,0,-0.0351,-0.0352,-0.0394,-0.0394,-0.0449,-0.0449,0,0,0,0,0,0,0,0,0,0,0,-0.0337,-0.0338,-0.0351,-0.0352,-0.0394,-0.0394,-0.0449,-0.0449,0,0,0,0,0,0,0,0,0,0,0,-0.0337,-0.0338,-0.0338,-0.0352,-0.0394,-0.0394,-0.0449,-0.0417,0,0,0,0,0,0,0,0,0,0,-0.0376,-0.0363,-0.0337,-0.0338,-0.0352,-0.0394,-0.0394,-0.0415,-0.0419,-0.043,0,-0.0438,0,-0.0445,-0.0453,-0.0453,0,0,0,-0.0352,-0.036,-0.0371,-0.0338,-0.0353,-0.0394,-0.0375,-0.0417,-0.0421,-0.0435,-0.0439,-0.0441,-0.0446,-0.0453,-0.0454,-0.0521,-0.0522,0,0,-0.035,-0.0345,-0.0369,-0.0374,-0.0367,-0.0374,-0.0376,-0.042,-0.0425,-0.0439,-0.0443,-0.0447,-0.0454,-0.0454,-0.0521,-0.0522,0,0,0,-0.0343,-0.0344,-0.0354,-0.0372,-0.0379,-0.0375,-0.0378,-0.0423,-0.0427,-0.0443,-0.0447,-0.0454,-0.0455,-0.0521,-0.0521,-0.0526,0,0,0,-0.0342,-0.034,-0.0353,-0.0351,-0.0379,-0.0402,-0.0381,-0.0424,-0.0429,-0.0447,-0.0454,-0.0455,-0.052,-0.0521,-0.0525,-0.0522,0,0,0,-0.0335,-0.0339,-0.0344,-0.035,-0.0368,-0.0401,-0.0407,-0.0425,-0.0431,-0.0453,-0.0455,-0.052,-0.0521,-0.0524,-0.0521,-0.052,0,0,0,-0.0327,-0.0338,-0.0345,-0.0361,-0.0368,-0.0403,-0.0407,-0.0432,-0.0451,-0.0454,-0.052,-0.0521,-0.0523,-0.052,-0.0519,-0.0444,0,0,0,-0.0335,-0.0339,-0.0349,-0.0356,-0.0389,-0.0397,-0.0435,-0.0458,-0.0468,-0.0505,-0.0507,-0.0525,-0.0521,-0.0519,-0.0492,0,0,0,0,-0.0347,-0.0355,-0.0366,-0.0389,-0.0414,-0.0441,-0.0464,-0.0477,-0.051,-0.0483,-0.054,-0.0538,-0.0536,-0.0492,-0.0525,-0.0525,-0.0525,-0.0525,-0.0525,-0.034,-0.0361,-0.0385,-0.0415,-0.044,-0.0476,-0.0496,-0.0521,-0.053,-0.0546,-0.0552,-0.057,-0.0525,-0.0568,-0.0568,-0.0568,-0.0568,-0.0568,-0.0568,-0.0348,-0.0362,-0.0397,-0.0427,-0.0463,-0.0496,-0.0536,-0.0544,-0.0573,-0.0576,-0.0574,-0.0514,-0.0569,-0.0569,-0.0569,-0.0569,-0.0569,-0.0569,-0.0568,-0.0338,-0.035,-0.0375,-0.0422,-0.0465,-0.0505,-0.0533,-0.0559,-0.0574,-0.0579,-0.0528,-0.0572,-0.0558,-0.0578,-0.0578,-0.0578,-0.0578,-0.0578,-0.0578,-0.0315,-0.0343,-0.0369,-0.0416,-0.0446,-0.0485,-0.053,-0.0536,-0.0554,-0.0525,-0.0579,-0.0573,-0.0572,-0.0559,-0.0577,-0.0577,-0.0578,-0.0578,-0.0578,-0.0299,-0.0317,-0.0349,-0.0379,-0.0441,-0.0465,-0.051,-0.0491,-0.049,-0.0465,-0.0494,-0.0498,-0.0486,-0.0488,-0.047,-0.0464,-0.0463,-0.0462,0,-0.0285,-0.0297,-0.0337,-0.0374,-0.0409,-0.0455,-0.0437,-0.0441,-0.0441,-0.0432,-0.0501,-0.0536,-0.0537,-0.0527,-0.0527,-0.0508,0,0,0,-0.0277,-0.0294,-0.0311,-0.0354,-0.0394,-0.0406,-0.0431,-0.0408,-0.0446,-0.0399,-0.0439,-0.0445,-0.0522,-0.0577,-0.0569,-0.0569,-0.0546,0,0]},{"header":{"parameterUnit":"m.s-1","parameterCategory":2,"la1":30.2992,"la2":30.254,"lo1":-89.0895,"lo2":-89.0443,"dy":0.0025,"dx":0.0025,"nx":19,"ny":19,"refTime":"2026-05-08T21:00:00:Z","depth":"4","parameterNumber":3,"parameterNumberName":"V-component_of_CURRENTS"},"data":[0,0,0,-0.0407,-0.0407,-0.0425,-0.0425,-0.0401,-0.0401,0,0,0,0,0,0,0,0,0,0,0,-0.0401,-0.0401,-0.0406,-0.0407,-0.0425,-0.0425,-0.0401,-0.0401,0,0,0,0,0,0,0,0,0,0,0,-0.0401,-0.0401,-0.0401,-0.0407,-0.0425,-0.0425,-0.0401,-0.0399,0,0,0,0,0,0,0,0,0,0,-0.0387,-0.0393,-0.0401,-0.0401,-0.0407,-0.0425,-0.0425,-0.04,-0.0399,-0.038,0,-0.0386,0,-0.0392,-0.0398,-0.0398,0,0,0,-0.0406,-0.0393,-0.0394,-0.0401,-0.0407,-0.0425,-0.0417,-0.04,-0.0399,-0.0379,-0.0386,-0.0385,-0.0391,-0.0398,-0.0398,-0.0355,-0.0355,0,0,-0.0405,-0.0406,-0.0395,-0.0394,-0.0415,-0.0416,-0.0417,-0.04,-0.0402,-0.0386,-0.0385,-0.0391,-0.0398,-0.0398,-0.0355,-0.0355,0,0,0,-0.0403,-0.0405,-0.0408,-0.0395,-0.0401,-0.0417,-0.0418,-0.0403,-0.0403,-0.0385,-0.0391,-0.0398,-0.0397,-0.0355,-0.0355,-0.0406,0,0,0,-0.0402,-0.0404,-0.0407,-0.0408,-0.0402,-0.041,-0.0421,-0.0404,-0.0402,-0.0391,-0.0398,-0.0397,-0.0355,-0.0355,-0.0405,-0.044,0,0,0,-0.04,-0.0404,-0.0406,-0.0408,-0.0416,-0.041,-0.041,-0.0404,-0.0406,-0.0398,-0.0397,-0.0355,-0.0355,-0.0405,-0.0438,-0.0422,0,0,0,-0.0399,-0.0409,-0.0406,-0.0419,-0.0416,-0.0424,-0.041,-0.0414,-0.041,-0.0397,-0.0355,-0.0355,-0.0404,-0.0436,-0.0421,-0.0372,0,0,0,-0.0411,-0.0411,-0.0418,-0.0416,-0.0436,-0.0422,-0.0434,-0.0421,-0.0393,-0.0358,-0.0357,-0.0406,-0.0438,-0.0421,-0.0345,0,0,0,0,-0.0422,-0.0429,-0.0433,-0.0445,-0.0446,-0.0454,-0.0438,-0.0424,-0.0402,-0.0388,-0.0382,-0.04,-0.0389,-0.0356,-0.0353,-0.0353,-0.0353,-0.0353,-0.0353,-0.0441,-0.0446,-0.0464,-0.047,-0.0475,-0.0472,-0.0472,-0.0443,-0.0414,-0.0405,-0.0424,-0.0425,-0.0391,-0.0396,-0.0396,-0.0396,-0.0397,-0.0397,-0.0397,-0.0464,-0.0478,-0.0487,-0.0508,-0.0514,-0.0521,-0.0501,-0.0486,-0.0464,-0.0442,-0.0427,-0.0391,-0.0401,-0.04,-0.04,-0.0399,-0.0399,-0.0399,-0.0398,-0.048,-0.0487,-0.0503,-0.0533,-0.0555,-0.0555,-0.0549,-0.054,-0.0508,-0.0511,-0.0435,-0.0447,-0.0462,-0.0489,-0.0489,-0.0489,-0.0489,-0.0489,-0.0489,-0.0488,-0.0503,-0.0531,-0.0558,-0.0577,-0.0586,-0.0578,-0.0553,-0.053,-0.0488,-0.0517,-0.0456,-0.0453,-0.0465,-0.0491,-0.049,-0.049,-0.049,-0.049,-0.0502,-0.0513,-0.0546,-0.0569,-0.0598,-0.0592,-0.0584,-0.052,-0.049,-0.0455,-0.0454,-0.0456,-0.0428,-0.0425,-0.0436,-0.0454,-0.0453,-0.0453,0,-0.0509,-0.0517,-0.0558,-0.0587,-0.0596,-0.0593,-0.0527,-0.0493,-0.0465,-0.0465,-0.0503,-0.0507,-0.0506,-0.0478,-0.0475,-0.0489,0,0,0,-0.0515,-0.0526,-0.0553,-0.0586,-0.0596,-0.0535,-0.0506,-0.0479,-0.0472,-0.0416,-0.0439,-0.0443,-0.0464,-0.0494,-0.0454,-0.045,-0.0468,0,0]}]]